Terug naar catalogus

QIANFAN-170

ActiefCommunicatiePO
NORAD 69387·PAYLOAD·🇨🇳 China

Gelanceerd Jun 4, 2026 vanaf Taiyuan Satellite Launch Center

Loading…

Volgende Passages (komende 24 uur)

TLE

VersSource: Space-Track

Epoch: Sep 14, 2026, 22:03 UTC

1 69387U 26124F   26257.91912721  .00000143  00000-0  20332-3 0  9993
2 69387  89.0077 352.5513 0001844  96.6075 263.5286 13.51025135 14171

Volg QIANFAN-170 in realtime met AllMySat

Download on the App Store